Regional Weather Roundup
Issued by NWS Upton, NY

Current Version | Previous Version | Text Only | Print | Product List | Glossary On
Versions: 1 2 3 4 5 6 7 8 9 10 11 12 13 14 15 16 17 18 19 20 21 22 23 24 25 26 27 28 29 30 31 32 33 34 35 36 37 38 39 40 41 42 43 44 45 46 47 48 49 50
000
ASUS41 KOKX 291407
RWROKX

REGIONAL WEATHER ROUNDUP
NATIONAL WEATHER SERVICE NEW YORK NY
1000 AM EDT SUN MAR 29 2015

NOTE: "FAIR" INDICATES FEW OR NO CLOUDS BELOW 12,000 FEET WITH NO
SIGNIFICANT WEATHER AND/OR OBSTRUCTIONS TO VISIBILITY.

NYZ071-072-176-178-NJZ106-104-291500-
NEW YORK CITY METRO AREA


CITY           SKY/WX    TMP DP  RH WIND       PRES   REMARKS
CENTRAL PARK   SUNNY     31   2  29 VRB5      30.30R WCI  26
LAGUARDIA APRT MOSUNNY   31   5  33 N10       30.29R WCI  22
KENNEDY INTL   MOSUNNY   34   2  25 NW15G23   30.29R WCI  24
NEWARK/LIBERTY MOSUNNY   33   1  25 N12       30.30R WCI  24
BRNX BOT. GARD   N/A    N/A N/A N/A N7        30.30R
TETERBORO      SUNNY     32   3  29 N10       30.29R WCI  24
$$

NYZ177-179-078>081-291500-
LONG ISLAND NEW YORK

CITY           SKY/WX    TMP DP  RH WIND       PRES   REMARKS
FARMINGDALE    SUNNY     30   8  39 N12       30.27R WCI  20
ISLIP          MOSUNNY   31   9  39 N14       30.24R WCI  21
SHIRLEY        MIX PCPN  30  10  43 N9        30.25R WCI  22
WESTHAMPTON    SUNNY     29  14  53 N15G23    30.25R WCI  18
MONTAUK POINT    N/A     30  15  53 N10       30.23R WCI  21
$$

NYZ052-065-067-291500-
HUDSON VALLEY

CITY           SKY/WX    TMP DP  RH WIND       PRES   REMARKS
WHITE PLAINS   SUNNY     29   5  36 N12       30.25R WCI  19
NEWBURGH       NOT AVBL
MONTGOMERY     SUNNY     32   2  27 N9        30.25S WCI  24
POUGHKEEPSIE   SUNNY     29   6  38 CALM      30.28R
ALBANY         SUNNY     27   8  44 CALM      30.28R
$$

NJZ001-105-106-008-010-013-015-019>022-104-291500-
NEW JERSEY

CITY           SKY/WX    TMP DP  RH WIND       PRES   REMARKS
NEWARK/LIBERTY MOSUNNY   33   1  25 N12       30.30R WCI  24
TETERBORO      SUNNY     32   3  29 N10       30.29R WCI  24
CALDWELL       SUNNY     31   3  30 VRB5      30.29R WCI  26
MORRISTOWN     SUNNY     32   5  32 N7G18     30.29R WCI  26
SOMERVILLE     SUNNY     32   5  32 N8        30.29R WCI  25
SUSSEX         SUNNY     31   5  33 N10G17    30.27S WCI  22
ANDOVER          N/A     29   7  39 N8        30.27S WCI  21
TRENTON        SUNNY     31   4  31 N12G18    30.30R WCI  22
MILLVILLE      SUNNY     32   9  38 NW12G23   30.32R WCI  23
ATLANTIC CITY  SUNNY     32   7  35 NW16      30.30R WCI  21
WRIGHTSTOWN    SUNNY     31   7  36 N9        30.28S WCI  23
TOMS RIVER     SUNNY     30   7  37 N12G20    30.30R WCI  21
BELMAR         SUNNY     32   5  32 N15       30.28R WCI  22
$$

PAZ047>061-062-071-291500-
EASTERN PENNSYLVANIA

CITY           SKY/WX    TMP DP  RH WIND       PRES   REMARKS
PHILADELPHIA   SUNNY     32   6  33 NW14      30.34R WCI  22
ALLENTOWN      SUNNY     30  10  43 NW12      30.32R WCI  20
SCRANTON       SUNNY     27  11  51 N8        30.29R WCI  19
$$

CTZ002-004>006-009-010-012-RIZ004-006-007-MAZ004-011-015-291500-
SOUTHERN NEW ENGLAND
 IN CT

CITY           SKY/WX    TMP DP  RH WIND       PRES   REMARKS
BRADLEY INTL   MOSUNNY   32   5  32 NW10      30.24R WCI  24
HARTFORD       SUNNY     30   6  36 N14       30.25R WCI  19
DANBURY        SUNNY     30   5  34 N14G20    30.26R WCI  19
WTRBRY/OXFORD  SUNNY     27   3  36 N14       30.22R WCI  15
BRIDGEPORT     SUNNY     33   8  35 N7        30.26R WCI  27
MERIDEN        SUNNY     31   3  30 NW12      30.25R WCI  22
NEW HAVEN      SUNNY     32   8  36 N13G21    30.25R WCI  22
CHESTER        FAIR      30   9  40 N10       30.22R WCI  21
GROTON         MOSUNNY   30  10  43 N13       30.22R WCI  20
WILLIMANTIC    SUNNY     31   7  36 NW9       30.23R WCI  23

 IN RI

CITY           SKY/WX    TMP DP  RH WIND       PRES   REMARKS
PROVIDENCE     MOSUNNY   30  13  49 N9        30.21R WCI  22
BLOCK ISLAND   PTSUNNY   28  18  64 N12       30.20R WCI  18
WESTERLY       CLOUDY    28  16  60 N7        30.22R WCI  21

 IN MA

CITY           SKY/WX    TMP DP  RH WIND       PRES   REMARKS
BOSTON         SUNNY     32   8  36 W7        30.22R WCI  26
WORCESTER      SUNNY     28   4  35 N8        30.16R WCI  20
WESTFIELD      SUNNY     33   6  32 N10       30.23R WCI  25
PROVINCETOWN   SUNNY     34  16  47 N14       30.19R WCI  24
NANTUCKET      PTSUNNY   37  22  54 N15       30.16R WCI  28
$$

ANZ330-335-338-340-345-350-353-355-291500-
COASTAL MARINE OBSERVATIONS


STATION/POSITION TIME  SKY/WX   TEMP    WIND        PRES    VSBY  WAVE
                                AIR SEA DIR/SP/G                  HT/PER
                 (UTC)          (F)     (DEG/KT/KT) (MB)    (MI)  (FT/S)
NY HARB ENTRANCE 1350            30 38  340/ 16/ 19 1024.8          3/11
4S FIRE IS       1303               37                N/A           4/ 9
20S FIRE ISLAND  1250               38              1024.1          5/10
23SW MTP         1350                                 N/A           6/11
HUDSON CANYON    NOT AVBL
EXECUTION ROCKS  NOT AVBL
WESTERN LI SOUND NOT AVBL
CENTRAL LI SOUND NOT AVBL
EASTERN LI SOUND NOT AVBL
ROBBINS REEF     1300            27     330/ 13/ 16 1024.1
$$


>>>>>>>>>>>>>>>>>>>>>>>>>>>> KEY <<<<<<<<<<<<<<<<<<<<<<<<<<<
>                                                          <
>     SKY/WX - SKY CONDITION/PRESENT WEATHER               <
>     TMP    - TEMPERATURE IN FAHRENHEIT                   <
>     DP     - DEWPOINT IN FAHRENHEIT                      <
>     RH     - RELATIVE HUMIDITY IN PERCENT                <
>     WIND   - DIRECTION AND SPEED IN MPH                  <
>     PRES   - MEAN SEA LEVEL PRESSURE IN INCHES OF HG     <
>     WCI    - WIND CHILL INDEX                            <
>     VSB    - VISIBILITY IN MILES                         <
>     HX     - HEAT INDEX                                  <
>     TC     - TEMPERATURE IN CELSIUS                      <
>     VRB    - VARIABLE WIND DIRECTION                     <
>                                                          <
>>>>>>>>>>>>>>>>>>>>>>>>>>>> KEY <<<<<<<<<<<<<<<<<<<<<<<<<<<





USA.gov is the U.S. government's official web portal to all federal, state and local government web resources and services.